PILOTS ONLINE: 272    ATC ONLINE: 65

KSMO

Santa Monica Municipal Airport

Location

City Santa Monica
Country  United States
Latitude 34° 0' 56" N
Longitude 118° 27' 3" W
Elevation 177 ft
Type Small Airport

Map

Weather

METAR
2014/10/23 00:51
KSMO 230051Z 24005KT 10SM CLR 22/16 A2990 RMK AO2 SLP122 T02220161
TAF
No TAF available

Runways

03/21 4973 ft / 150 ft

Outbound flights

Callsign Flying to Pilot ATD/STD ETA Aircraft

Inbound flights

Callsign Flying from Pilot ATD ETA Aircraft